La Veta Pass, CO

2:33 PM MDT on April 26, 2018 (GMT -0600)
La Veta Pass

Weather History for KVTP - April, 2014

Change the Weather History Date:

Monday, April 7, 2014

  Actual Average (KTAD) Record (KTAD)
Temperature  
Mean Temperature 28 °F -  
Max Temperature 37 °F 65 °F 82 °F (1978)
Min Temperature 19 °F 32 °F 8 °F (1957)
Degree Days  
Heating Degree Days 37    
Moisture  
Dew Point 17 °F    
Average Humidity 67    
Maximum Humidity 86    
Minimum Humidity 36    
Precipitation  
Precipitation 0.00 in - - ()
Sea Level Pressure  
Sea Level Pressure 30.15 in    
Wind  
Wind Speed 7 mph (NNW)    
Max Wind Speed 16 mph    
Max Gust Speed 31 mph    
Visibility 10 miles    
Events Snow    
Averages and records for this station are not official NWS values.
T = Trace of Precipitation, MM = Missing Value Source: NWS Daily Summary

Daily Weather History Graph

Daily Weather History Graph

Search for Another Location

Airport or City:

Astronomy

Apr. 07, 2014 Rise Set
Actual Time 6:37 AM MDT 7:28 PM MDT
Civil Twilight 6:10 AM MDT 7:55 PM MDT
Nautical Twilight 5:39 AM MDT 8:27 PM MDT
Astronomical Twilight 5:06 AM MDT 8:59 PM MDT
Moon 12:38 PM MDT (4/7) 2:04 AM MDT (4/7)
Length of Visible Light 13h 44m
Length of Day
12h 51m
First Quarter, 54% of the Moon is Illuminated
Apr 7
First Quarter
Apr 15
Full
Apr 22
Last Quarter
Apr 29
New
May 6
First Quarter

Hourly Weather History & Observations

Time (MDT) Temp. Windchill Dew Point Humidity Pressure Visibility Wind Dir Wind Speed Gust Speed Precip Events Conditions
12:12 AM 21.2 °F 11.7 °F 17.6 °F 86% 30.02 in 10.0 mi NNW 8.1 mph - N/A   Clear
12:29 AM 21.2 °F 12.6 °F 17.6 °F 86% 30.01 in 10.0 mi NNW 6.9 mph - N/A   Clear
12:53 AM 23.0 °F 13.1 °F 17.6 °F 80% 30.01 in 10.0 mi NNW 9.2 mph - N/A   Clear
1:13 AM 21.2 °F 11.7 °F 15.8 °F 80% 30.01 in 10.0 mi NW 8.1 mph - N/A   Clear
1:31 AM 21.2 °F 11.7 °F 15.8 °F 80% 30.01 in 10.0 mi NW 8.1 mph - N/A   Clear
1:47 AM 21.2 °F 10.9 °F 14.0 °F 74% 30.01 in 10.0 mi NW 9.2 mph - N/A   Clear
2:13 AM 21.2 °F 10.9 °F 15.8 °F 80% 30.01 in 10.0 mi WNW 9.2 mph - N/A   Scattered Clouds
2:32 AM 21.2 °F 16.4 °F 15.8 °F 80% 30.01 in 10.0 mi West 3.5 mph - N/A   Mostly Cloudy
2:52 AM 21.2 °F 12.6 °F 15.8 °F 80% 30.02 in 10.0 mi WNW 6.9 mph - N/A   Mostly Cloudy
3:13 AM 21.2 °F 13.6 °F 15.8 °F 80% 30.03 in 10.0 mi NW 5.8 mph - N/A   Overcast
3:27 AM 21.2 °F 10.1 °F 15.8 °F 80% 30.03 in 10.0 mi NW 10.4 mph - N/A   Overcast
3:52 AM 21.2 °F 11.7 °F 17.6 °F 86% 30.03 in 10.0 mi WNW 8.1 mph - N/A   Overcast
4:13 AM 21.2 °F 12.6 °F 15.8 °F 80% 30.02 in 10.0 mi WNW 6.9 mph 16.1 mph N/A   Mostly Cloudy
4:33 AM 21.2 °F 10.9 °F 15.8 °F 80% 30.02 in 10.0 mi WNW 9.2 mph - N/A   Overcast
4:53 AM 21.2 °F 10.1 °F 14.0 °F 74% 30.02 in 10.0 mi WNW 10.4 mph 21.9 mph N/A   Mostly Cloudy
5:13 AM 21.2 °F 12.6 °F 14.0 °F 74% 30.03 in 10.0 mi NW 6.9 mph 18.4 mph N/A   Clear
5:26 AM 21.2 °F 10.9 °F 14.0 °F 74% 30.03 in 10.0 mi NW 9.2 mph 20.7 mph N/A   Clear
5:53 AM 21.2 °F 9.5 °F 14.0 °F 74% 30.05 in 10.0 mi NW 11.5 mph 18.4 mph N/A   Clear
6:10 AM 21.2 °F 11.7 °F 14.0 °F 74% 30.06 in 10.0 mi NNW 8.1 mph - N/A   Clear
6:33 AM 19.4 °F - 14.0 °F 80% 30.08 in 10.0 mi Calm Calm - N/A   Clear
6:53 AM 19.4 °F 11.5 °F 14.0 °F 80% 30.09 in 10.0 mi NW 5.8 mph - N/A   Clear
6:58 AM 19.4 °F 14.3 °F 14.0 °F 80% 30.09 in 10.0 mi NW 3.5 mph - N/A   Clear
7:25 AM 23.0 °F 13.1 °F 15.8 °F 74% 30.10 in 10.0 mi NNW 9.2 mph - N/A   Clear
7:51 AM 23.0 °F 14.7 °F 15.8 °F 74% 30.10 in 10.0 mi North 6.9 mph - N/A   Clear
8:04 AM 26.6 °F 19.1 °F 17.6 °F 69% 30.11 in 10.0 mi NNW 6.9 mph - N/A   Clear
8:30 AM 26.6 °F 18.2 °F 17.6 °F 69% 30.12 in 10.0 mi North 8.1 mph - N/A   Clear
8:47 AM 28.4 °F 22.2 °F 17.6 °F 64% 30.12 in 10.0 mi North 5.8 mph - N/A   Scattered Clouds
9:10 AM 28.4 °F 22.2 °F 19.4 °F 69% 30.13 in 10.0 mi North 5.8 mph - N/A   Mostly Cloudy
9:32 AM 28.4 °F 22.2 °F 17.6 °F 64% 30.14 in 10.0 mi North 5.8 mph - N/A   Mostly Cloudy
9:51 AM 32.0 °F 26.4 °F 21.2 °F 64% 30.15 in - NE 5.8 mph - N/A   Unknown
10:11 AM 32.0 °F 28.7 °F 23.0 °F 69% 30.15 in 10.0 mi NE 3.5 mph - N/A   Mostly Cloudy
10:32 AM 30.2 °F 25.4 °F 23.0 °F 75% 30.16 in 10.0 mi ENE 4.6 mph - N/A   Mostly Cloudy
10:53 AM 28.4 °F 24.6 °F 23.0 °F 80% 30.17 in 10.0 mi NE 3.5 mph - N/A   Mostly Cloudy
11:12 AM 28.4 °F - 21.2 °F 74% 30.18 in 10.0 mi Calm Calm - N/A   Overcast
11:33 AM 32.0 °F 24.2 °F 21.2 °F 64% 30.17 in 10.0 mi NNW 9.2 mph 16.1 mph N/A   Overcast
11:52 AM 28.4 °F 23.3 °F 19.4 °F 69% 30.18 in 2.0 mi NNW 4.6 mph - N/A Snow Light Snow
12:10 PM 28.4 °F 19.7 °F 19.4 °F 69% 30.17 in 4.0 mi NNW 9.2 mph - N/A Snow Light Snow
12:32 PM 33.8 °F 27.0 °F 19.4 °F 56% 30.16 in 10.0 mi North 8.1 mph - N/A   Overcast
12:53 PM 32.0 °F 24.8 °F 19.4 °F 60% 30.16 in 7.0 mi West 8.1 mph - N/A Snow Light Snow
1:13 PM 32.0 °F 27.5 °F 19.4 °F 60% 30.17 in 10.0 mi NNW 4.6 mph - N/A   Overcast
1:31 PM 30.2 °F 26.7 °F 23.0 °F 75% 30.17 in 4.0 mi ENE 3.5 mph - N/A   Haze
2:07 PM 32.0 °F 24.8 °F 26.6 °F 80% 30.18 in 10.0 mi ENE 8.1 mph - N/A   Overcast
2:32 PM 30.2 °F 26.7 °F 23.0 °F 75% 30.18 in 10.0 mi NNE 3.5 mph - N/A   Overcast
2:51 PM 30.2 °F - 23.0 °F 75% 30.18 in 10.0 mi Calm Calm - N/A   Overcast
3:11 PM 35.6 °F 28.0 °F 15.8 °F 44% 30.17 in 10.0 mi NNE 10.4 mph - N/A   Overcast
3:26 PM 35.6 °F 28.0 °F 15.8 °F 44% 30.16 in 10.0 mi NNW 10.4 mph 20.7 mph N/A   Mostly Cloudy
3:52 PM 37.4 °F 29.8 °F 12.2 °F 36% 30.17 in 10.0 mi NNW 11.5 mph 23.0 mph N/A   Scattered Clouds
4:06 PM 37.4 °F 30.3 °F 15.8 °F 41% 30.17 in 10.0 mi North 10.4 mph 31.1 mph N/A   Scattered Clouds
4:32 PM 37.4 °F 28.2 °F 12.2 °F 36% 30.17 in 10.0 mi NNW 16.1 mph 23.0 mph N/A   Clear
4:53 PM 35.6 °F 26.6 °F 12.2 °F 38% 30.18 in 10.0 mi NNW 13.8 mph 21.9 mph N/A   Clear
5:13 PM 33.8 °F 24.8 °F 12.2 °F 41% 30.19 in 10.0 mi North 12.7 mph 24.2 mph N/A   Clear
5:27 PM 32.0 °F 27.5 °F 21.2 °F 64% 30.20 in 10.0 mi NNE 4.6 mph - N/A   Clear
5:52 PM 32.0 °F 26.4 °F 19.4 °F 60% 30.21 in 10.0 mi NNE 5.8 mph - N/A   Clear
6:09 PM 30.2 °F 24.3 °F 21.2 °F 69% 30.22 in 10.0 mi ENE 5.8 mph - N/A   Clear
6:29 PM 28.4 °F 23.3 °F 21.2 °F 74% 30.23 in 10.0 mi ENE 4.6 mph - N/A   Clear
6:50 PM 28.4 °F 23.3 °F 21.2 °F 74% 30.23 in 10.0 mi NNW 4.6 mph - N/A   Clear
7:12 PM 28.4 °F - 21.2 °F 74% 30.25 in 10.0 mi Calm Calm - N/A   Scattered Clouds
7:27 PM 28.4 °F - 21.2 °F 74% 30.25 in 10.0 mi Calm Calm - N/A   Mostly Cloudy
7:53 PM 28.4 °F 23.3 °F 17.6 °F 64% 30.25 in 10.0 mi NW 4.6 mph - N/A   Overcast
8:06 PM 28.4 °F 23.3 °F 14.0 °F 55% 30.26 in 10.0 mi NW 4.6 mph - N/A   Scattered Clouds
8:31 PM 28.4 °F 23.3 °F 14.0 °F 55% 30.27 in 10.0 mi NNW 4.6 mph - N/A   Clear
8:44 PM 28.4 °F 22.2 °F 14.0 °F 55% 30.28 in 10.0 mi NNW 5.8 mph - N/A   Clear
9:12 PM 28.4 °F 21.2 °F 12.2 °F 51% 30.29 in 10.0 mi NW 6.9 mph - N/A   Clear
9:29 PM 26.6 °F 20.0 °F 12.2 °F 55% 30.30 in 10.0 mi NW 5.8 mph - N/A   Clear
9:50 PM 26.6 °F 18.2 °F 12.2 °F 55% 30.30 in 10.0 mi NW 8.1 mph - N/A   Clear
10:13 PM 26.6 °F 19.1 °F 12.2 °F 55% 30.29 in 10.0 mi WNW 6.9 mph - N/A   Clear
10:30 PM 26.6 °F 19.1 °F 12.2 °F 55% 30.29 in 10.0 mi WNW 6.9 mph - N/A   Clear
10:52 PM 26.6 °F 17.5 °F 14.0 °F 59% 30.29 in 10.0 mi WNW 9.2 mph - N/A   Clear
11:13 PM 26.6 °F 16.8 °F 12.2 °F 55% 30.28 in 10.0 mi NW 10.4 mph - N/A   Clear
11:29 PM 26.6 °F 19.1 °F 12.2 °F 55% 30.28 in 10.0 mi WNW 6.9 mph - N/A   Clear
11:53 PM 26.6 °F 20.0 °F 12.2 °F 55% 30.28 in 10.0 mi WSW 5.8 mph - N/A   Clear